Find Elektro

NORAD ID: 23327 Int'l Des: 1994-069 Owner: RGMS/VNIEMR Country: RU operational
HEOCIRCULARGSO

Live-Position

3D-Globus wird geladen...

Über Elektro

Beschreibung wird geladen...

Nächste Überflüge

Passes for default location (London). Set your location on the main map for personalized predictions.

Höhenverlauf

Loading altitude history...

Zweizeiliger Elementsatz

1 23327U 94069A 26106.98483238 -.00000124 00000-0 00000-0 0 9993
2 23327 14.4995 349.7676 0008108 270.3915 15.9561 1.00288873115255
Epoch: 16. Apr. 2026 • Age: 12 hours

Aktueller Status

Höhe 35812.0 km
Geschwindigkeit 3.07 km/s
Subsatellitenpunkt 13.26°N, 77.14°E
Startdatum 31. Okt. 1994
Alter 31.4 years
Typ other

Technische Details

Klassifizierung Payload
Masse 2580.00 kg
Trockenmasse 2400.00 kg
Gesamtmasse 2580.00 kg
Länge 5.50 m
Durchmesser 2.50 m
Spannweite 9.00 m
Form Step Cyl + 2 Pan
Hersteller VNIEMR
Bus-Typ Elektro
Phasenstatus In Orbit
Besitzer/Staat RGMS/VNIEMR/RU

Most Searched